Regional Weather Roundup
Issued by NWS

Home | Current Version | Previous Version | Graphics & Text | Print | Product List | Glossary On
Versions: 1 2 3 4 5 6 7 8 9 10 11 12 13 14 15 16 17 18 19 20 21 22 23 24 25 26 27 28 29 30 31 32 33 34 35 36 37 38 39 40 41 42 43 44 45 46 47 48 49 50
000
ASUS43 KFSD 270110
RWRSD

WEATHER ROUNDUP FOR SOUTH DAKOTA
NATIONAL WEATHER SERVICE SIOUX FALLS SD
800 PM CDT TUE MAY 26 2015

NOTE: "FAIR" INDICATES FEW OR NO CLOUDS BELOW 12,000 FEET WITH NO
SIGNIFICANT WEATHER AND/OR OBSTRUCTIONS TO VISIBILITY.


SDZ001>005-009-010-012>017-270200-
NORTHWEST AND NORTH CENTRAL SOUTH DAKOTA

CITY           SKY/WX    TMP DP  RH WIND       PRES   REMARKS
BUFFALO          N/A     69  42  37 S9        29.86S
FAITH            N/A     71  47  42 SW6       29.92R
MOBRIDGE       SUNNY     78  48  34 N3        29.85R
$$

SDZ012>016-024>037-041>051-057-063-072>074-270200-
SOUTHWEST AND SOUTH CENTRAL SOUTH DAKOTA

CITY           SKY/WX    TMP DP  RH WIND       PRES   REMARKS
RAPID CTY ARPT MOSUNNY   65  49  56 S7        29.94F
PIERRE         MOSUNNY   73  49  42 NE12      29.87R
CUSTER         CLOUDY    50  47  89 N3        30.02F
ELLSWORTH AFB  MOSUNNY   65  49  55 S6        29.94S
PHILIP         MOSUNNY   71  48  43 SW7       29.91R
PINE RIDGE     MOSUNNY   65  47  52 SE6       29.95F
SPEARFISH      FAIR      61  54  77 SE7       29.96S
WINNER         FAIR      74  51  44 N5        29.90R
$$

SDZ004>011-016>023-039-040-270200-
NORTHEAST SOUTH DAKOTA

CITY           SKY/WX    TMP DP  RH WIND       PRES   REMARKS
ABERDEEN       CLOUDY    66  55  67 W6        29.83R
WATERTOWN      CLOUDY    68  54  60 W3        29.84R
BROOKINGS      CLOUDY    66  54  63 CALM      29.85R
SISSETON         N/A     70  54  56 W7        29.80R
$$

SDZ017-020-022-023-036>040-048>070-270200-
SOUTHEAST SOUTH DAKOTA

CITY           SKY/WX    TMP DP  RH WIND       PRES   REMARKS
SIOUX FALLS    CLOUDY    65  52  62 NW7       29.84R
HURON          CLOUDY    72  51  47 E3        29.83R
CHAMBERLAIN    DRIZZLE   64  55  71 W7        29.88R
MITCHELL       MOCLDY    74  51  44 CALM      29.84S
YANKTON        MOCLDY    70  52  52 N5        29.84R
$$

ABBREVIATIONS USED IN REMARKS
   TC - TEMPERATURE IN CELSIUS
  WCI - WIND CHILL INDEX
   HX - HEAT INDEX
  VSB - VISIBILITY



USA.gov is the U.S. government's official web portal to all federal, state and local government web resources and services.